Powrót do katalogu

COSMOS 1410

AktywnyNawigacjaPO
NORAD 13589·PAYLOAD·🇷🇺 Russia

Wystrzelony Sep 24, 1982 z Plesetsk Cosmodrome

Loading…

Następne Przeloty (najbliższe 24 godziny)

TLE

ŚwieżeSource: Space-Track

Epoka: Sep 14, 2026, 09:12 UTC

1 13589U 82096A   26257.38343711  .00000011  00000-0  57661-5 0  9995
2 13589  82.6068  57.5092 0007065 113.1182 270.7422 12.42353534995033

Śledź COSMOS 1410 w czasie rzeczywistym z AllMySat

Download on the App Store